| time (UTC) | temp C | wind direction | speed KPH | gust KPH | rain 1hr cm | rain 24hr cm | rain mn cm | humidity % | barometer mb |
| 20260509101216 | 11 | 67 | 0.0 | 0.0 | 0.00 | 0.00 | 0.00 | 83 | 1032.3 |
| 20260509100218 | 11 | 67 | 0.0 | 0.0 | 0.00 | 0.00 | 0.00 | 82 | 1032.4 |
| 20260509095219 | 11 | 67 | 0.0 | 0.0 | 0.00 | 0.00 | 0.00 | 80 | 1032.4 |
| 20260509094317 | 11 | 67 | 1.6 | 3.2 | 0.00 | 0.00 | 0.00 | 80 | 1032.4 |
| 20260509093318 | 11 | 67 | 0.0 | 1.6 | 0.00 | 0.00 | 0.00 | 80 | 1032.4 |
| 20260509091416 | 12 | 360 | 0.0 | 0.0 | 0.00 | 0.00 | 0.00 | 79 | 1032.5 |
| 20260509090516 | 12 | 360 | 0.0 | 0.0 | 0.00 | 0.00 | 0.00 | 79 | 1032.5 |
| 20260509085518 | 12 | 360 | 0.0 | 0.0 | 0.00 | 0.00 | 0.00 | 79 | 1032.5 |
| 20260509084518 | 12 | 360 | 0.0 | 0.0 | 0.00 | 0.00 | 0.00 | 79 | 1032.7 |
| 20260509082618 | 12 | 360 | 0.0 | 0.0 | 0.00 | 0.00 | 0.00 | 78 | 1032.9 |
| 20260509081619 | 12 | 360 | 0.0 | 0.0 | 0.00 | 0.00 | 0.00 | 77 | 1032.9 |
| 20260509075717 | 12 | 360 | 0.0 | 0.0 | 0.00 | 0.00 | 0.00 | 77 | 1033.1 |
| 20260509074719 | 12 | 360 | 0.0 | 0.0 | 0.00 | 0.00 | 0.00 | 76 | 1032.9 |
| 20260509073718 | 13 | 360 | 0.0 | 0.0 | 0.00 | 0.00 | 0.00 | 75 | 1033.1 |
| 20260509071818 | 13 | 360 | 0.0 | 0.0 | 0.00 | 0.00 | 0.00 | 73 | 1032.9 |
| 20260509070818 | 13 | 360 | 0.0 | 0.0 | 0.00 | 0.00 | 0.00 | 72 | 1032.9 |
| 20260509064913 | 15 | 360 | 0.0 | 0.0 | 0.00 | 0.00 | 0.00 | 68 | 1032.9 |
| 20260509063913 | 15 | 360 | 0.0 | 0.0 | 0.00 | 0.00 | 0.00 | 67 | 1032.9 |
| 20260509062912 | 15 | 360 | 0.0 | 0.0 | 0.00 | 0.00 | 0.00 | 66 | 1032.9 |
| 20260509062010 | 15 | 360 | 0.0 | 0.0 | 0.00 | 0.00 | 0.00 | 67 | 1033.0 |
| 20260509060012 | 15 | 360 | 0.0 | 0.0 | 0.00 | 0.00 | 0.00 | 64 | 1032.9 |
| 20260509055110 | 15 | 360 | 0.0 | 0.0 | 0.00 | 0.00 | 0.00 | 64 | 1032.9 |
| 20260509053112 | 15 | 360 | 0.0 | 0.0 | 0.00 | 0.00 | 0.00 | 65 | 1032.9 |
| 20260509052113 | 15 | 360 | 0.0 | 0.0 | 0.00 | 0.00 | 0.00 | 66 | 1032.9 |
| 20260509051112 | 16 | 360 | 6.4 | 6.4 | 0.00 | 0.00 | 0.00 | 62 | 1032.9 |
| 20260509050211 | 16 | 327 | 3.2 | 6.4 | 0.00 | 0.00 | 0.00 | 59 | 1032.7 |
| 20260509045212 | 16 | 212 | 3.2 | 6.4 | 0.00 | 0.00 | 0.00 | 59 | 1032.7 |
| 20260509044213 | 16 | 217 | 4.8 | 8.0 | 0.00 | 0.00 | 0.00 | 58 | 1032.6 |
| 20260509044115 | 16 | 202 | 1.6 | 8.0 | 0.00 | 0.00 | 0.00 | 59 | 1032.7 |
| 20260509043211 | 16 | 214 | 3.2 | 8.0 | 0.00 | 0.00 | 0.00 | 59 | 1032.5 |
| 20260509042213 | 16 | 207 | 3.2 | 11.3 | 0.00 | 0.00 | 0.00 | 58 | 1032.4 |
| 20260509041212 | 16 | 206 | 3.2 | 11.3 | 0.00 | 0.00 | 0.00 | 58 | 1032.4 |
| 20260509040213 | 16 | 206 | 3.2 | 11.3 | 0.00 | 0.00 | 0.00 | 58 | 1032.2 |
| 20260509040113 | 16 | 208 | 4.8 | 9.7 | 0.00 | 0.00 | 0.00 | 58 | 1032.2 |
| 20260509035211 | 16 | 215 | 6.4 | 9.7 | 0.00 | 0.00 | 0.00 | 57 | 1032.1 |
| 20260509034210 | 16 | 225 | 6.4 | 9.7 | 0.00 | 0.00 | 0.00 | 57 | 1031.9 |
| 20260509033212 | 17 | 225 | 6.4 | 8.0 | 0.00 | 0.00 | 0.00 | 57 | 1031.8 |
| 20260509031310 | 17 | 225 | 11.3 | 14.5 | 0.00 | 0.00 | 0.00 | 55 | 1031.5 |
| 20260509030313 | 17 | 225 | 11.3 | 16.1 | 0.00 | 0.00 | 0.00 | 54 | 1031.5 |
| 20260509025312 | 17 | 225 | 12.9 | 16.1 | 0.00 | 0.00 | 0.00 | 53 | 1031.3 |
| 20260509025210 | 17 | 225 | 12.9 | 17.7 | 0.00 | 0.00 | 0.00 | 52 | 1031.3 |
| 20260509023213 | 18 | 229 | 16.1 | 20.9 | 0.00 | 0.00 | 0.00 | 50 | 1031.0 |
| 20260509022311 | 18 | 225 | 20.9 | 27.4 | 0.00 | 0.00 | 0.00 | 49 | 1031.1 |
| 20260509022210 | 18 | 225 | 12.9 | 17.7 | 0.00 | 0.00 | 0.00 | 50 | 1031.1 |
| 20260509021210 | 18 | 220 | 17.7 | 24.1 | 0.00 | 0.00 | 0.00 | 49 | 1031.1 |
| 20260509015213 | 18 | 222 | 17.7 | 22.5 | 0.00 | 0.00 | 0.00 | 49 | 1031.1 |
| 20260509014212 | 18 | 225 | 20.9 | 25.7 | 0.00 | 0.00 | 0.00 | 48 | 1030.9 |
| 20260509013310 | 18 | 224 | 20.9 | 25.7 | 0.00 | 0.00 | 0.00 | 48 | 1030.9 |
| 20260509012311 | 18 | 226 | 24.1 | 30.6 | 0.00 | 0.00 | 0.00 | 48 | 1031.1 |
| 20260509011410 | 18 | 230 | 24.1 | 37.0 | 0.00 | 0.00 | 0.00 | 47 | 1031.0 |
| 20260509005411 | 18 | 227 | 20.9 | 30.6 | 0.00 | 0.00 | 0.00 | 48 | 1031.1 |
| 20260509004412 | 18 | 226 | 17.7 | 22.5 | 0.00 | 0.00 | 0.00 | 48 | 1031.0 |
| 20260509003411 | 18 | 222 | 20.9 | 29.0 | 0.00 | 0.00 | 0.00 | 47 | 1031.1 |
| 20260509003316 | 18 | 227 | 24.1 | 35.4 | 0.00 | 0.00 | 0.00 | 47 | 1031.1 |
| 20260509001411 | 18 | 227 | 20.9 | 29.0 | 0.00 | 0.00 | 0.00 | 47 | 1031.0 |
| 20260509000412 | 18 | 222 | 29.0 | 37.0 | 0.00 | 0.00 | 0.00 | 46 | 1031.0 |
| 20260508234512 | 18 | 225 | 25.7 | 33.8 | 0.00 | 0.00 | 0.00 | 46 | 1031.0 |
| 20260508232512 | 18 | 226 | 20.9 | 29.0 | 0.00 | 0.00 | 0.00 | 44 | 1031.1 |
| 20260508231513 | 18 | 225 | 27.4 | 37.0 | 0.00 | 0.00 | 0.00 | 45 | 1031.1 |
| 20260508230511 | 18 | 222 | 20.9 | 29.0 | 0.00 | 0.00 | 0.00 | 46 | 1031.2 |
| 20260508225610 | 18 | 224 | 30.6 | 40.2 | 0.00 | 0.00 | 0.00 | 46 | 1031.1 |
| 20260508224611 | 17 | 224 | 25.7 | 33.8 | 0.00 | 0.00 | 0.00 | 46 | 1031.2 |
| 20260508223612 | 17 | 224 | 24.1 | 29.0 | 0.00 | 0.00 | 0.00 | 48 | 1031.2 |
| 20260508222611 | 17 | 227 | 22.5 | 27.4 | 0.00 | 0.00 | 0.00 | 48 | 1031.4 |
| 20260508221711 | 17 | 224 | 25.7 | 35.4 | 0.00 | 0.00 | 0.00 | 49 | 1031.3 |
| 20260508220711 | 17 | 225 | 22.5 | 30.6 | 0.00 | 0.00 | 0.00 | 49 | 1031.4 |
| 20260508215712 | 17 | 227 | 20.9 | 29.0 | 0.00 | 0.00 | 0.00 | 50 | 1031.4 |
| 20260508214712 | 17 | 221 | 22.5 | 29.0 | 0.00 | 0.00 | 0.00 | 49 | 1031.5 |
| 20260508213711 | 17 | 220 | 22.5 | 30.6 | 0.00 | 0.00 | 0.00 | 50 | 1031.3 |
| 20260508212712 | 17 | 215 | 20.9 | 29.0 | 0.00 | 0.00 | 0.00 | 51 | 1031.5 |
| 20260508211713 | 16 | 231 | 20.9 | 29.0 | 0.00 | 0.00 | 0.00 | 52 | 1031.3 |
| 20260508210710 | 16 | 228 | 19.3 | 27.4 | 0.00 | 0.00 | 0.00 | 53 | 1031.5 |
| 20260508205713 | 16 | 213 | 24.1 | 32.2 | 0.00 | 0.00 | 0.00 | 53 | 1031.5 |
| 20260508204811 | 16 | 221 | 24.1 | 32.2 | 0.00 | 0.00 | 0.00 | 52 | 1031.6 |
| 20260508203812 | 16 | 226 | 25.7 | 30.6 | 0.00 | 0.00 | 0.00 | 54 | 1031.8 |
| 20260508202814 | 16 | 222 | 22.5 | 33.8 | 0.00 | 0.00 | 0.00 | 55 | 1032.0 |
| 20260508201909 | 16 | 223 | 19.3 | 30.6 | 0.00 | 0.00 | 0.00 | 55 | 1031.8 |
| 20260508200913 | 15 | 223 | 19.3 | 25.7 | 0.00 | 0.00 | 0.00 | 56 | 1031.9 |
| 20260508200009 | 15 | 227 | 20.9 | 29.0 | 0.00 | 0.00 | 0.00 | 55 | 1031.8 |
| 20260508195010 | 15 | 232 | 22.5 | 33.8 | 0.00 | 0.00 | 0.00 | 56 | 1032.0 |
| 20260508194011 | 15 | 226 | 20.9 | 29.0 | 0.00 | 0.00 | 0.00 | 57 | 1032.1 |
| 20260508192111 | 15 | 219 | 24.1 | 37.0 | 0.00 | 0.00 | 0.00 | 58 | 1032.1 |
| 20260508190212 | 15 | 228 | 20.9 | 33.8 | 0.00 | 0.00 | 0.00 | 59 | 1032.1 |
| 20260508185211 | 14 | 217 | 25.7 | 38.6 | 0.00 | 0.00 | 0.00 | 59 | 1032.1 |
| 20260508183212 | 14 | 220 | 20.9 | 32.2 | 0.00 | 0.00 | 0.00 | 61 | 1032.1 |
| 20260508182311 | 13 | 219 | 20.9 | 32.2 | 0.00 | 0.00 | 0.00 | 62 | 1032.0 |
| 20260508180411 | 13 | 224 | 22.5 | 30.6 | 0.00 | 0.00 | 0.00 | 63 | 1031.6 |
| 20260508174511 | 13 | 218 | 14.5 | 22.5 | 0.00 | 0.00 | 0.00 | 65 | 1031.9 |
| 20260508173513 | 12 | 225 | 12.9 | 17.7 | 0.00 | 0.00 | 0.00 | 66 | 1031.5 |
| 20260508172610 | 12 | 225 | 11.3 | 19.3 | 0.00 | 0.00 | 0.00 | 67 | 1031.8 |
| 20260508171612 | 12 | 226 | 17.7 | 22.5 | 0.00 | 0.00 | 0.00 | 67 | 1031.8 |
| 20260508170611 | 12 | 224 | 14.5 | 19.3 | 0.00 | 0.00 | 0.00 | 67 | 1031.7 |
| 20260508165610 | 12 | 233 | 12.9 | 16.1 | 0.00 | 0.00 | 0.00 | 67 | 1031.3 |
| 20260508165511 | 12 | 224 | 14.5 | 19.3 | 0.00 | 0.00 | 0.00 | 67 | 1031.3 |
| 20260508164510 | 12 | 228 | 12.9 | 24.1 | 0.00 | 0.00 | 0.00 | 68 | 1031.4 |
| 20260508164412 | 12 | 225 | 14.5 | 17.7 | 0.00 | 0.00 | 0.00 | 67 | 1031.3 |
| 20260508163412 | 12 | 234 | 12.9 | 19.3 | 0.00 | 0.00 | 0.00 | 67 | 1031.4 |
| 20260508163311 | 12 | 236 | 12.9 | 17.7 | 0.00 | 0.00 | 0.00 | 68 | 1031.3 |
| 20260508162310 | 11 | 231 | 17.7 | 22.5 | 0.00 | 0.00 | 0.00 | 67 | 1031.1 |
| 20260508161312 | 11 | 246 | 19.3 | 24.1 | 0.00 | 0.00 | 0.00 | 68 | 1031.2 |
| 20260508160411 | 11 | 240 | 12.9 | 20.9 | 0.00 | 0.00 | 0.00 | 69 | 1031.1 |
| 20260508155410 | 11 | 246 | 19.3 | 24.1 | 0.00 | 0.00 | 0.00 | 68 | 1031.2 |
| 20260508155312 | 12 | 237 | 16.1 | 19.3 | 0.00 | 0.00 | 0.00 | 67 | 1031.2 |
| 20260508152410 | 12 | 235 | 25.7 | 40.2 | 0.00 | 0.00 | 0.00 | 66 | 1031.3 |
| 20260508150411 | 12 | 235 | 17.7 | 24.1 | 0.00 | 0.00 | 0.00 | 67 | 1031.2 |
| 20260508145411 | 12 | 226 | 12.9 | 17.7 | 0.00 | 0.00 | 0.00 | 68 | 1031.1 |
| 20260508144412 | 12 | 224 | 17.7 | 20.9 | 0.00 | 0.00 | 0.00 | 68 | 1030.9 |
| 20260508143412 | 12 | 222 | 22.5 | 29.0 | 0.00 | 0.00 | 0.00 | 67 | 1030.9 |
| 20260508142512 | 12 | 222 | 25.7 | 37.0 | 0.00 | 0.00 | 0.00 | 65 | 1030.7 |
| 20260508140511 | 12 | 225 | 24.1 | 38.6 | 0.00 | 0.00 | 0.00 | 64 | 1030.0 |
| 20260508134510 | 13 | 226 | 20.9 | 29.0 | 0.00 | 0.00 | 0.00 | 62 | 1029.8 |
| 20260508134411 | 13 | 226 | 22.5 | 30.6 | 0.00 | 0.00 | 0.00 | 62 | 1029.7 |
| 20260508133412 | 13 | 233 | 20.9 | 25.7 | 0.00 | 0.00 | 0.00 | 60 | 1029.3 |
| 20260508132412 | 13 | 227 | 16.1 | 20.9 | 0.00 | 0.00 | 0.00 | 60 | 1029.4 |
| 20260508131412 | 13 | 237 | 17.7 | 24.1 | 0.00 | 0.00 | 0.00 | 59 | 1029.2 |
| 20260508130511 | 13 | 226 | 16.1 | 22.5 | 0.00 | 0.00 | 0.00 | 60 | 1028.8 |
| 20260508125511 | 13 | 229 | 19.3 | 25.7 | 0.00 | 0.00 | 0.00 | 64 | 1029.0 |
| 20260508124511 | 13 | 237 | 14.5 | 19.3 | 0.00 | 0.00 | 0.00 | 65 | 1028.8 |
| 20260508123511 | 13 | 222 | 19.3 | 25.7 | 0.00 | 0.00 | 0.00 | 66 | 1028.7 |
| 20260508122511 | 13 | 224 | 17.7 | 25.7 | 0.00 | 0.00 | 0.00 | 66 | 1028.8 |
| 20260508122411 | 13 | 230 | 20.9 | 29.0 | 0.00 | 0.00 | 0.00 | 66 | 1028.4 |
| 20260508115511 | 12 | 225 | 14.5 | 17.7 | 0.00 | 0.00 | 0.00 | 71 | 1028.4 |
| 20260508114610 | 12 | 225 | 12.9 | 16.1 | 0.00 | 0.00 | 0.00 | 74 | 1028.2 |
| 20260508113612 | 11 | 224 | 12.9 | 20.9 | 0.00 | 0.00 | 0.00 | 81 | 1028.3 |
| 20260508112612 | 10 | 216 | 3.2 | 6.4 | 0.00 | 0.00 | 0.00 | 83 | 1028.3 |
| 20260508110511 | 10 | 180 | 0.0 | 0.0 | 0.00 | 0.00 | 0.00 | 82 | 1028.2 |
| 20260508105511 | 10 | 180 | 0.0 | 0.0 | 0.00 | 0.00 | 0.00 | 81 | 1028.0 |
| 20260508104512 | 10 | 180 | 0.0 | 0.0 | 0.00 | 0.00 | 0.00 | 81 | 1027.9 |